User: anonymous   Login
Location: *
(51.5000°N, 0.1100°W)
Time: 11:21:02
(UTC+00:00)
Language:

MSX - Orbit

View from above orbital plane
View from above orbital plane
View from above satellite
View from above satellite

Ground track
Ground track

The orbit data is extracted from the following two-line orbital elements,

1 23851U 96024A   24203.81602362  .00000094  00000-0  96609-4 0  9996
2 23851  98.9702 142.4361 0007460   1.5679 358.5507 13.98245647441160
Epoch (UTC): 21 July 2024 19:35:04
Eccentricity: 0.0007460
inclination: 98.9702°
perigee height: 894 km
apogee height: 905 km
right ascension of ascending node: 142.4361°
argument of perigee: 1.5679°
revolutions per day: 13.98245647
mean anomaly at epoch: 358.5507°
orbit number at epoch: 44116

The dashed part of the orbit path shows where the satellite is in the earth's shadow,  

DLR